STARLINK-11247, 60720

Orbit data source: Space-Track

STARLINK-11247, 60720 is a payload satellite owned by SpaceX/Seattle (US) in LEO that was launched on Wed, 28 Aug 2024 UTC via an FALCON 9 launch vehicle from the Air Force Eastern Test Range (AFETR). Payload-class satellites include a variety of spacecraft equipped with specific instruments for various scientific and technological missions. These include communications satellites like Starlink; space stations such as the ISS; scientific satellites like the Hubble; Earth observation satellites from companies like Planet Labs, Umbra, and HawkEye 360; GPS; miniature CubeSats for education and research; and military/defense satellites.

Loading next visibility...
Identifier
60720, 2024-152A
Orbit
LEO
Last TLE update
20 hours ago
Origin
Manufacturer
SpaceX/Seattle
Mission
Operational Commercial Communications
Bus & Motor
STARLINK V2M, Unknown motor
Mass
730 kg wet, ~700 kg dry
Launch date (UTC)
2024-08-28 (10 months ago)
Launch vehicle
FALCON 9
Launch site
Air Force Eastern Test Range (AFETR)
Object type
Payload
Rocket body
Debris
Shape & HBR
Box + 2 Pan, 29 m
Radar Cross Section
36.964 m², Large (>1 m²)

Expand to show TLE details & history

TLE from 20 hours ago
0 STARLINK-11247
1 60720U 24152A   25181.57748222 -.00000311  00000-0  22928-5 0  9997
2 60720  53.1583 279.4018 0001184  37.5119 322.5981 15.69707629 49244
Epoch: 2025-06-30T13:51Z
TLE epoch observation values (Epoch: 2025-06-30T13:51:34.463Z)
Latitude
-0.00007°
Longitude
152.62287°
Altitude
360.015 km
Speed
7.695 km/s
True Right ascension
18h 37m 36s
True Declination
0° 00' 00"
Sunlit
Object was in full shadow at epoch
Visualization orbit readout
Latitude
39.16475°
Longitude
-174.1406°
Altitude
362.358 km
Speed
7.697 km/s
Apparent Right ascension
16h 27m 39s
Apparent Declination
9° 01' 19"
Sunlit
Object is in full shadow
Visualization observer readout
Local Sidereal Time
21:35:01
Azimuth
268.571° W
Elevation
15.846°
Doppler factor
1
Orbital elements
Apogee altitude
360.792 km
Perigee altitude
359.197 km
Semi-major axis
6,738.131 km
Eccentricity
0.00012
Inclination
53.1583°
RAAN
279.4018°
Arg. of periapsis
37.5119°
True anomaly
Unknown
Mean anomaly
322.5981°
Eccentric anomaly
Unknown
Mean motion
3.92404 °/min
Orbital period
91.74 mins
BSTAR
0.0000022928
Loading maneuver chart data...
Loading SW <> Apogee altitude chart data...
Loading historical data...
Loading historical data...
Loading historical data...
Loading historical data...
Loading historical data...
Loading historical data...
Loading historical data...

STARLINK-11247 Visibility forecast

Observer location: undefined°, undefined°

Span
Click to sort rows by Start time (UTC) header in descending order
Start Az.
Max El. time (UTC)
Max El. Az.
Max El.
End time (UTC)
End Az.
4 mins2025-07-01 09:56:39.172Z267.975° W2025-07-01 09:58:39.172Z329.216° NNW28.06°2025-07-01 10:00:39.172Z26.723° NE
4 mins2025-07-01 16:21:39.172Z289.625° WNW2025-07-01 16:23:39.172Z193.54° SSW34.551°2025-07-01 16:25:39.172Z150.617° SSE
4 mins2025-07-02 08:50:39.172Z225.416° WSW2025-07-02 08:51:39.172Z218.723° SW40.282°2025-07-02 08:54:39.172Z51.491° ENE
|